STARLINK-2707, 48669

Orbit data source: Space-Track

STARLINK-2707, 48669 is a payload satellite owned by SpaceX/Seattle (US) in LEO that was launched on Wed, 26 May 2021 UTC via an FALCON 9 launch vehicle from the Air Force Eastern Test Range (AFETR). Payload-class satellites include a variety of spacecraft equipped with specific instruments for various scientific and technological missions. These include communications satellites like Starlink; space stations such as the ISS; scientific satellites like the Hubble; Earth observation satellites from companies like Planet Labs, Umbra, and HawkEye 360; GPS; miniature CubeSats for education and research; and military/defense satellites.

Loading next visibility...
Identifier
48669, 2021-044AH
Orbit
LEO
Country
Flag of USUS
Related business
Manufacturer
SpaceX/Seattle
Mission
Operational Commercial Communications
Bus & Motor
STARLINK, Unknown motor
Mass
260 kg wet, ~248 kg dry
Launch date (UTC)
2021-05-26 (5 years ago)
Launch vehicle
FALCON 9
Launch site
Air Force Eastern Test Range (AFETR)
Object type
Payload
Rocket body
Debris
Shape & HBR
Box + 1 Pan, 10.1 m
Radar Cross Section
13.562 m², Large (>1 m²)

Expand to show TLE details & history
Last TLE update: 1 day ago

TLE from 1 day ago
0 STARLINK-2707
1 48669U 21044AH  25348.64222891  .00000205  00000-0  32633-4 0  9998
2 48669  53.0564 133.4149 0001445  93.3681 266.7474 15.06389884251025
Epoch: 2025-12-14T15:24Z
TLE epoch observation values (Epoch: 2025-12-14T15:24:48.577Z)
Latitude
0.00002°
Longitude
178.66029°
Altitude
548.179 km
Speed
7.589 km/s
True Right ascension
08h 53m 39s
True Declination
0° 00' 00"
Sunlit
Object was in full shadow at epoch
Visualization orbit readout
Latitude
Unknown
Longitude
Unknown
Altitude
Unknown
Speed
Unknown
Apparent Right ascension
Unknown
Apparent Declination
Unknown
Sunlit
N/A
Visualization observer readout
Local Sidereal Time
15:12:32
Azimuth
Unknown
Elevation
Unknown
Doppler factor
Unknown
Orbital elements
Apogee altitude
548.514 km
Perigee altitude
546.512 km
Semi-major axis
6,925.65 km
Eccentricity
0.00014
Inclination
53.0564°
RAAN
133.4149°
Arg. of periapsis
93.3681°
True anomaly
266.73087°
Mean anomaly
266.7474°
Eccentric anomaly
266.73913°
Mean motion
3.76576 °/min
Orbital period
95.6 mins
BSTAR
0.000032633
Loading maneuver chart data...
Computing Atmospheric mass density...
Loading historical data...
Loading historical data...
Loading historical data...
Loading historical data...
Loading historical data...
Loading historical data...
Loading historical data...

Documentation

Showing up to 5 results
|